Overview Statistics Trail Chart Weather Telemetry Raw packets
 

This is the latest recevied weather packets stored in our database for station/object SV9TNF-56. If no packets are shown the sender has not sent any weather packets the latest 10 day(s).

<< 14 15 16 17 18 19 20 >>
Time Temp. Humidity Pressure Rain* Wind** Luminosity Snow
1788556644 24.44° C 70% 1012.2 hPa 0 mm 31.74 m/s, 284° - -
1788556345 24.44° C 70% 1012.5 hPa 0 mm 17.88 m/s, 265° - -
1788556044 24.44° C 71% 1012.5 hPa 0 mm 29.5 m/s, 330° - -
1788555745 24.44° C 70% 1012.5 hPa 0 mm 36.66 m/s, 306° - -
1788555444 24.44° C 70% 1012.5 hPa 0 mm 24.59 m/s, 307° - -
1788555144 24.44° C 69% 1012.5 hPa 0 mm 28.61 m/s, 6° - -
1788554844 24.44° C 68% 1012.2 hPa 0 mm 24.59 m/s, 324° - -
1788554544 24.44° C 68% 1012.2 hPa 0 mm 31.29 m/s, 275° - -
1788554244 24.44° C 68% 1012.2 hPa 0 mm 23.25 m/s, 284° - -
1788553944 24.44° C 66% 1012.2 hPa 0 mm 33.53 m/s, 287° - -
1788553644 24.44° C 67% 1012.5 hPa 0 mm 26.38 m/s, 294° - -
1788553343 24.44° C 67% 1012.2 hPa 0 mm 22.8 m/s, 276° - -
1788553062 24.44° C 67% 1012.5 hPa 0 mm 19.67 m/s, 252° - -
1788552743 24.44° C 67% 1012.2 hPa 0 mm 27.72 m/s, 284° - -
1788552444 24.44° C 66% 1012.2 hPa 0 mm 22.8 m/s, 232° - -
1788552143 24.44° C 65% 1012.5 hPa 0 mm 16.09 m/s, 354° - -
1788551843 24.44° C 65% 1012.5 hPa 0 mm 20.56 m/s, 300° - -
1788551543 24.44° C 66% 1012.2 hPa 0 mm 24.59 m/s, 324° - -
1788551243 24.44° C 66% 1012.5 hPa 0 mm 13.86 m/s, 291° - -
1788550942 25° C 65% 1012.2 hPa 0 mm 24.59 m/s, 318° - -
1788550642 24.44° C 65% 1012.2 hPa 0 mm 14.31 m/s, 330° - -
1788550342 25° C 65% 1012.2 hPa 0 mm 15.2 m/s, 312° - -
1788550042 25° C 63% 1012.2 hPa 0 mm 16.99 m/s, 295° - -
1788549743 25° C 62% 1012.2 hPa 0 mm 13.86 m/s, 262° - -
1788549442 24.44° C 63% 1012.2 hPa 0 mm 17.88 m/s, 259° - -

* Rain latest hour (hover to see other rain measurements)
** Current wind speed in m/s (hover to see current wind gust speed)